Погода в Виви

Погода в Виви : погода сейчас, прогноз погоды и архив. Всё, что Вы хотите узнать о погоде в Виви!

Поиск расширенной информации на нашем сайте:

Другие новости

Новости СМИ2

Главная страница сайта

Новости сайта

02.10.2013

Напоминаем, что на нашем новом сайте вы можете получить высокодетализированные прогнозы погоды по пунктам России, СНГ и мира (включающие важные для авиации метеовеличины, такие как направление и скорость ветра, видимость, явления погоды, количество и форма облачности, нижняя и верхняя граница облачности), а также ознакомиться с разнообразными материалами по авиационной метеорологии и подборкой полезных ссылок на эту тему.

Сайт Метеоцентр.Азия посвящён разработке технологий оптимизации авиаметеорологического обслуживания, включая проектирование и перспективное создание нескольких автоматизированных авиаметеорологических систем:
- система выпуска высокодетальных прогностических карт явлений погоды для нижнего воздушного пространства по России и ближнему зарубежью;
- система верификации прогнозов TAF (выпускаемых синоптиками официальных АМСГ РФ и ближнего зарубежья) и AUTOTAF (выпускаемых сайтом Метеоцентр.Азия) - выявление ошибок, онлайн-сопоставление с фактической погодой METAR, автоматическое внесение коррективов в прогнозы при резком отклонении фактической погоды от прогноза, подсчёт оправдываемости прогнозов по элементам и в целом;
- система обработки, анализа и отображения авиаметеорологической информации для применения провайдерами метеорологической информации.


Погода в Виви - сегодня

Время (UTC), дата Ветер
(°,м/с) 
Видим.   Явления Облачность Т
(°С)
Тd
(°С)
f(%) Тe
(°С)
Pmin
(гПа)
dP
(гПа)
Po
(мм)
O2
(г/м3)
Тmin Tmax R s Состояние
почвы
18 19.04.17 тихо ()   н/о  слаб. снег  10/10 1000 м 
[Sc]
+0.1 -5.4 66 995.7  -3.1  726  293           
00 20.04.17 тихо ()   10 км  слаб. снег  10/10 1000 м 
[Sc]
+0.1 -2 86 993  -1.1  724  292  -0.2    35  неравномерный
мокрый или
старый снег
100% 
03 20.04.17 290 (З) 20000 м  {снег}  10/6 1000 м средняя 
[Sc|As trans]
-2.8 -10.3 56 -5  996.1  2.7  726  296  -3         
12 20.04.17 340 (С) 20000 м    4/4 600 м кучево-дожд. 
[Cb cap]
-6.8 -15.3 51 -8  1005.7  2.6  732  304    +0.1  0.0     
03 21.04.17 270 (З) 20000 м    4/0 средняя 
[As trans]
-3.4 -11.3 54 -6  1006.2  0.5  733  300           
06 21.04.17 270 (З) 20000 м    6/0 средняя 
[As trans]
+3.3 -15.1 25 +2  1008.7  2.8  736  294           
09 21.04.17 270 (З) 20000 м    8/0 средняя 
[As op]
+4.5 -8.7 38 +5  1010.7  1.9  737  293           
12 21.04.17 270 (З) 20000 м    6/0 средняя 
[As trans]
+2.9 -9.6 39 +4  1013.4  2.4  739  295    +5       
15 21.04.17 тихо ()   н/о    ясно 
-3.2 -12 51 -3  1016.4  2.2  740  303           
18 21.04.17 тихо ()   н/о    ясно 
-6 -12.8 59 -6  1018.3  1.6  742  307           
00 22.04.17 тихо ()   20000 м    ясно 
-6.6 -14.3 54 -7  1021.8  1.9  744  309  -8.7      35  неравномерный
мокрый или
старый снег
100% 
06 22.04.17 340 (С) 20000 м    ясно 
+0.2 -12.2 39 +1  1022.3  0.3  745  301           
03 23.04.17 140 (ЮВ) 20000 м    1/0 верхняя 
[Ci fib]
+1.2 -11.2 39 +2  1027.2  -0.1  749  301           
09 23.04.17 230 (ЮЗ) 20000 м    10/0 верхняя 
[Ci sp]
+6.2 -10.8 28 +7  1024.9  -0.7  747  295           
03 24.04.17 тихо ()   20000 м    8/0 средняя 
[As trans]
+3.5 -5 54 +4  1025  -0.2  747  298           
09 24.04.17 230 (ЮЗ) 20000 м    8/0 средняя 
[As trans]
+9.7 -7.1 30 +11  1022.2  -1.3  746  291           
12 24.04.17 тихо ()   20000 м    6/0 средняя 
[As trans]
+8.3 -4.7 39 +8  1021.9  -0.3  745  292    +9.9       
00 25.04.17 тихо ()   20000 м    6/0 средняя 
[As trans]
+0.7 -7.9 53 +1  1022.4  -0.1  745  300  -2.5      25  неравномерный
мокрый или
старый снег
100% 
03 25.04.17 180 (Ю) 20000 м    4/0 верхняя 
[Ci sp]
+10 -5.1 34 +11  1019.6  -1.7  744  290           
09 25.04.17 290 (З) 20000 м    10/4 1000 м средняя 
[Sc|Ac As]
+11.9 -5.9 28 +13  1018.5  0.6  743  288           
12 25.04.17 290 (З) 20000 м    8/3 1000 м верхняя 
[Sc|Ci]
+10.5 -5.5 32 +12  1019.6  744  289    +15       
00 26.04.17 тихо ()   20000 м    ясно 
+0.6 -10 45 +1  1024.1  0.5  746  301  -0.7      21  неравномерный
мокрый или
старый снег
100% 
06 26.04.17 290 (З) 20000 м    10/0 средняя 
[As op]
+9.1 -3.8 40 +9  1020.2  -2  744  291           
12 26.04.17 230 (ЮЗ) 20000 м    1/0 верхняя 
[Ci fib]
+11.9 -0.4 43 +13  1014.1  -2.7  740  286    +12.5       
15 26.04.17 тихо ()   н/о    ясно 
+5.5 -2.6 56 +6  1013.3  -1.4  739  292           
Время (UTC), дата Ветер
(°,м/с) 
Видим.   Явления Облачность Т
(°С)
Тd
(°С)
f(%) Тe
(°С)
Pmin
(гПа)
dP
(гПа)
Po
(мм)
O2
(г/м3)
Тmin Tmax R s Состояние
почвы

Для получения пояснительной информации подведите курсор к названию столбца.

ПОГОДА в Виви - архив

Всё, что Вы хотите узнать о погоде в Виви - удобно и подробно!

Выберите нужную дату (начиная с 1 января 2015* года) и нажмите кнопку "Найти".
Будут отображены архивные сводки погоды по пункту Виви, начиная с указанной даты.


Отображать данные в формате CSV (для использования в таблицах Excel)


Внимание! Наш архив погоды предназначен исключительно для личного некоммерческого использования в познавательных целях. Если Вам необходимы официальные справки о состоянии погоды (для производственных, юридических, коммерческих и т.п. целей), обращайтесь в органы Росгидромета.

*Примечание: данная дата относится к архиву по метеостанциям СССР (Россия, СНГ, Балтия).
Архив по метеостанциям Зарубежной Европы и Азии (кроме Китая) хранится 10 дней, по другим регионам земного шара (Китай, Африка, Америка, Австралия, Океания) - 1 день.

Виви - район местоположения метеостанции


Название, широта, долгота, высота метеостанции:
Виви 63.9°ш. 97.8°д. 109 м над ур. моря [Российская Федерация]

Дополнительная информация

В oтличие oт бoльшинства пoгoдных сайтoв мы публикуем пoдрoбную метеoинфoрмацию в детальнoм прoфессиoнальнoм фoрмате.

Характеристики температуры и влажнoсти вoздуха измеряются на высoте 2 м в тени вдали oт зданий и деревьев.
Скoрoсть ветра измеряется на высoте 10 м (на урoвне рoста челoвека скoрoсть ветра ниже в 1.5-2 раза). Если метеoстанция нахoдится в гoрoде или в лесу, тo скoрoсть ветра занижена на 2-4 м/с пo сравнению с oткрытым местoм. Скoрoсть ветра над акватoриями крупных рек и oзёр, а также на вершинах хoлмoв на 2-5 м/с выше, чем в oбычных услoвиях.
Атмoсфернoе давление в разных тoчках местнoсти мoжет значительнo oтличаться oт давления на метеoстанции, в зависимoсти oт услoвий рельефа (при пoдъёме на 10 м давление пoнижается примернo на 1 мм рт.ст.).